BGA1 WAAA-WALL

Flight info

Callsign BGA1
Flight time 0h 51m
Altitude 30000
Route MKS
Aircraft A3ST/H-SDFGHIRWY/LB1

Departure

Time 2026-04-28 13:34
Airport Sultan Hasanuddin International Airport (WAAA)

Arrival

Time 2026-04-28 14:25
Airport Sultan Aji Muhammad Sulaiman Sepinggan International Airport (WALL)
Time Latitude Longitude Altitude Speed Heading
2026-04-28 13:07 -5.07942 119.54837 45 ft 0 kts 120°
2026-04-28 13:25 -5.07931 119.54819 42 ft 4 kts 128°
2026-04-28 13:26 -5.07912 119.54801 45 ft 4 kts 152°
2026-04-28 13:26 -5.07890 119.54795 44 ft 4 kts 204°
2026-04-28 13:26 -5.07885 119.54797 44 ft 3 kts 210°
2026-04-28 13:30 -5.07890 119.54795 44 ft 4 kts 210°
2026-04-28 13:30 -5.07959 119.54756 41 ft 13 kts 202°
2026-04-28 13:30 -5.08032 119.54785 39 ft 13 kts 125°
2026-04-28 13:30 -5.08109 119.54836 42 ft 18 kts 183°
2026-04-28 13:31 -5.08370 119.54696 43 ft 25 kts 210°
2026-04-28 13:31 -5.08523 119.54607 44 ft 26 kts 211°
2026-04-28 13:31 -5.08679 119.54518 40 ft 26 kts 208°
2026-04-28 13:32 -5.08834 119.54427 42 ft 26 kts 211°
2026-04-28 13:32 -5.08994 119.54335 41 ft 27 kts 208°
2026-04-28 13:32 -5.09135 119.54286 41 ft 17 kts 166°
2026-04-28 13:32 -5.09206 119.54365 44 ft 15 kts 116°
2026-04-28 13:33 -5.09171 119.54438 45 ft 15 kts 31°
2026-04-28 13:33 -5.08915 119.54584 44 ft 82 kts 30°
2026-04-28 13:33 -5.08177 119.55011 42 ft 162 kts 30°
2026-04-28 13:33 -5.07056 119.55653 520 ft 205 kts 30°
2026-04-28 13:34 -5.05673 119.56287 1457 ft 232 kts 13°
2026-04-28 13:34 -5.04004 119.56342 1965 ft 250 kts 356°
2026-04-28 13:34 -5.02230 119.56191 2525 ft 259 kts 355°
2026-04-28 13:34 -5.00417 119.56060 3221 ft 263 kts 357°
2026-04-28 13:35 -4.98582 119.55973 3924 ft 266 kts 358°
2026-04-28 13:35 -4.96724 119.55915 4665 ft 268 kts 359°
2026-04-28 13:35 -4.94858 119.55707 5369 ft 272 kts 351°
2026-04-28 13:35 -4.92985 119.55352 6087 ft 275 kts 349°
2026-04-28 13:36 -4.91096 119.54973 6757 ft 279 kts 349°
2026-04-28 13:36 -4.89180 119.54591 7435 ft 282 kts 349°
2026-04-28 13:36 -4.87242 119.54209 8147 ft 286 kts 349°
2026-04-28 13:36 -4.85279 119.53823 8859 ft 289 kts 349°
2026-04-28 13:37 -4.83352 119.53204 9556 ft 294 kts 333°
2026-04-28 13:37 -4.81617 119.52091 10189 ft 300 kts 323°
2026-04-28 13:37 -4.79909 119.50779 10465 ft 318 kts 323°
2026-04-28 13:37 -4.78098 119.49408 10782 ft 332 kts 323°
2026-04-28 13:38 -4.76231 119.47993 11270 ft 339 kts 323°
2026-04-28 13:38 -4.74342 119.46559 11830 ft 343 kts 323°
2026-04-28 13:38 -4.72435 119.45109 12423 ft 346 kts 323°
2026-04-28 13:38 -4.70509 119.43644 13016 ft 349 kts 323°
2026-04-28 13:39 -4.68564 119.42164 13584 ft 353 kts 323°
2026-04-28 13:39 -4.66602 119.40671 14096 ft 356 kts 323°
2026-04-28 13:39 -4.64620 119.39163 14591 ft 359 kts 323°
2026-04-28 13:39 -4.62621 119.37641 15087 ft 362 kts 323°
2026-04-28 13:40 -4.60625 119.36122 15585 ft 365 kts 323°
2026-04-28 13:40 -4.58592 119.34576 16075 ft 368 kts 323°
2026-04-28 13:40 -4.56545 119.33018 16566 ft 371 kts 323°
2026-04-28 13:40 -4.54481 119.31448 17055 ft 374 kts 323°
2026-04-28 13:41 -4.52404 119.29868 17527 ft 377 kts 323°
2026-04-28 13:41 -4.50307 119.28273 18006 ft 380 kts 324°
2026-04-28 13:41 -4.48195 119.26666 18438 ft 383 kts 324°
2026-04-28 13:41 -4.46064 119.25046 18835 ft 385 kts 324°
2026-04-28 13:42 -4.43921 119.23416 19203 ft 388 kts 324°
2026-04-28 13:42 -4.41759 119.21772 19623 ft 390 kts 324°
2026-04-28 13:42 -4.39590 119.20122 19993 ft 393 kts 324°
2026-04-28 13:42 -4.37408 119.18463 20384 ft 395 kts 324°
2026-04-28 13:43 -4.35241 119.16816 20765 ft 397 kts 324°
2026-04-28 13:43 -4.33034 119.15138 21131 ft 399 kts 324°
2026-04-28 13:43 -4.30814 119.13450 21531 ft 401 kts 324°
2026-04-28 13:43 -4.28582 119.11753 21912 ft 403 kts 324°
2026-04-28 13:44 -4.26341 119.10050 22265 ft 405 kts 324°
2026-04-28 13:44 -4.24087 119.08337 22617 ft 408 kts 324°
2026-04-28 13:44 -4.21817 119.06612 22967 ft 410 kts 324°
2026-04-28 13:44 -4.19538 119.04881 23304 ft 412 kts 324°
2026-04-28 13:45 -4.17249 119.03141 23608 ft 414 kts 324°
2026-04-28 13:45 -4.14942 119.01388 23876 ft 417 kts 324°
2026-04-28 13:45 -4.12626 118.99629 24173 ft 418 kts 324°
2026-04-28 13:45 -4.10314 118.97872 24540 ft 417 kts 324°
2026-04-28 13:46 -4.08009 118.96120 24915 ft 415 kts 324°
2026-04-28 13:46 -4.05739 118.94396 25264 ft 415 kts 324°
2026-04-28 13:46 -4.03435 118.92646 25611 ft 415 kts 324°
2026-04-28 13:46 -4.01139 118.90902 25968 ft 414 kts 324°
2026-04-28 13:47 -3.98869 118.89121 26326 ft 414 kts 321°
2026-04-28 13:47 -3.96722 118.87193 26676 ft 414 kts 319°
2026-04-28 13:47 -3.94608 118.85230 27031 ft 414 kts 319°
2026-04-28 13:47 -3.92521 118.83248 27378 ft 413 kts 318°
2026-04-28 13:48 -3.90447 118.81256 27744 ft 413 kts 318°
2026-04-28 13:48 -3.88381 118.79262 28097 ft 412 kts 317°
2026-04-28 13:48 -3.86319 118.77271 28450 ft 411 kts 317°
2026-04-28 13:48 -3.84256 118.75281 28799 ft 411 kts 318°
2026-04-28 13:49 -3.82195 118.73297 29159 ft 410 kts 318°
2026-04-28 13:49 -3.80165 118.71345 29492 ft 410 kts 318°
2026-04-28 13:49 -3.78109 118.69371 29802 ft 410 kts 318°
2026-04-28 13:49 -3.76044 118.67390 29895 ft 413 kts 318°
2026-04-28 13:50 -3.71859 118.63375 29894 ft 419 kts 318°
2026-04-28 13:50 -3.67652 118.59338 29894 ft 419 kts 318°
2026-04-28 13:51 -3.63444 118.55300 29894 ft 419 kts 318°
2026-04-28 13:51 -3.59234 118.51261 29894 ft 419 kts 318°
2026-04-28 13:52 -3.55022 118.47220 29894 ft 419 kts 318°
2026-04-28 13:52 -3.50810 118.43180 29894 ft 419 kts 318°
2026-04-28 13:53 -3.46598 118.39141 29899 ft 419 kts 318°
2026-04-28 13:53 -3.42387 118.35103 29897 ft 419 kts 318°
2026-04-28 13:54 -3.38198 118.31087 29895 ft 419 kts 318°
2026-04-28 13:54 -3.33980 118.27043 29893 ft 420 kts 317°
2026-04-28 13:55 -3.29760 118.22999 29895 ft 420 kts 317°
2026-04-28 13:55 -3.25534 118.18948 29896 ft 420 kts 317°
2026-04-28 13:56 -3.21311 118.14900 29895 ft 420 kts 317°
2026-04-28 13:56 -3.17108 118.10873 29892 ft 420 kts 317°
2026-04-28 13:57 -3.12888 118.06830 29900 ft 420 kts 317°
2026-04-28 13:57 -3.08665 118.02785 29898 ft 420 kts 317°
2026-04-28 13:58 -3.04441 117.98738 29897 ft 420 kts 317°
2026-04-28 13:58 -3.00214 117.94691 29897 ft 420 kts 317°
2026-04-28 13:59 -2.95935 117.90699 29897 ft 420 kts 320°
2026-04-28 13:59 -2.91476 117.86930 29898 ft 420 kts 322°
2026-04-28 14:00 -2.86968 117.83209 29900 ft 420 kts 322°
2026-04-28 14:00 -2.82472 117.79471 29899 ft 420 kts 321°
2026-04-28 14:01 -2.78022 117.75744 29898 ft 420 kts 321°
2026-04-28 14:01 -2.73521 117.71964 29897 ft 420 kts 321°
2026-04-28 14:02 -2.69078 117.68234 29898 ft 420 kts 321°
2026-04-28 14:02 -2.64332 117.64927 29554 ft 410 kts 338°
2026-04-28 14:03 -2.61723 117.63785 29296 ft 409 kts 339°
2026-04-28 14:03 -2.59078 117.62722 29035 ft 410 kts 340°
2026-04-28 14:03 -2.56406 117.61709 28771 ft 410 kts 341°
2026-04-28 14:03 -2.54633 117.61051 28604 ft 410 kts 341°
2026-04-28 14:04 -2.51956 117.60033 28361 ft 412 kts 338°
2026-04-28 14:04 -2.49435 117.58722 27867 ft 406 kts 329°
2026-04-28 14:04 -2.47113 117.57137 26862 ft 404 kts 326°
2026-04-28 14:04 -2.44861 117.55447 25752 ft 406 kts 324°
2026-04-28 14:05 -2.42646 117.53694 24657 ft 407 kts 323°
2026-04-28 14:05 -2.40439 117.51907 23618 ft 407 kts 323°
2026-04-28 14:05 -2.38272 117.50139 22934 ft 394 kts 323°
2026-04-28 14:05 -2.36193 117.48445 22538 ft 380 kts 323°
2026-04-28 14:06 -2.34128 117.46776 22106 ft 383 kts 323°
2026-04-28 14:06 -2.32050 117.45108 21670 ft 382 kts 323°
2026-04-28 14:06 -2.29979 117.43452 21234 ft 380 kts 323°
2026-04-28 14:06 -2.27922 117.41810 20798 ft 377 kts 323°
2026-04-28 14:07 -2.25883 117.40185 20372 ft 374 kts 323°
2026-04-28 14:07 -2.23855 117.38568 19929 ft 371 kts 323°
2026-04-28 14:07 -2.21846 117.36967 19496 ft 368 kts 323°
2026-04-28 14:07 -2.19850 117.35375 19072 ft 366 kts 323°
2026-04-28 14:08 -2.17866 117.33793 18646 ft 363 kts 322°
2026-04-28 14:08 -2.15920 117.32241 18226 ft 361 kts 322°
2026-04-28 14:08 -2.13965 117.30681 17743 ft 358 kts 322°
2026-04-28 14:08 -2.12028 117.29136 17319 ft 355 kts 322°
2026-04-28 14:09 -2.10097 117.27596 16900 ft 353 kts 322°
2026-04-28 14:09 -2.08188 117.26072 16467 ft 350 kts 322°
2026-04-28 14:09 -2.06291 117.24559 16068 ft 348 kts 322°
2026-04-28 14:09 -2.04403 117.23053 15659 ft 346 kts 322°
2026-04-28 14:10 -2.02529 117.21559 15229 ft 344 kts 322°
2026-04-28 14:10 -2.00664 117.20071 14821 ft 342 kts 322°
2026-04-28 14:10 -1.98812 117.18594 14419 ft 339 kts 322°
2026-04-28 14:10 -1.96971 117.17126 14002 ft 337 kts 322°
2026-04-28 14:11 -1.95165 117.15685 13582 ft 336 kts 322°
2026-04-28 14:11 -1.93344 117.14233 13145 ft 333 kts 322°
2026-04-28 14:11 -1.91532 117.12788 12738 ft 332 kts 322°
2026-04-28 14:11 -1.89735 117.11355 12342 ft 330 kts 322°
2026-04-28 14:12 -1.87942 117.09925 11987 ft 328 kts 322°
2026-04-28 14:12 -1.86164 117.08508 11650 ft 326 kts 322°
2026-04-28 14:12 -1.84394 117.07096 11239 ft 324 kts 322°
2026-04-28 14:12 -1.82636 117.05695 10831 ft 322 kts 322°
2026-04-28 14:13 -1.80892 117.04304 10432 ft 320 kts 322°
2026-04-28 14:13 -1.79185 117.02943 10260 ft 305 kts 322°
2026-04-28 14:13 -1.77572 117.01654 10177 ft 289 kts 322°
2026-04-28 14:13 -1.76031 117.00422 10045 ft 279 kts 323°
2026-04-28 14:14 -1.74513 116.99212 9833 ft 281 kts 323°
2026-04-28 14:14 -1.72984 116.97995 9447 ft 280 kts 322°
2026-04-28 14:14 -1.71465 116.96786 9116 ft 279 kts 322°
2026-04-28 14:14 -1.69950 116.95579 8807 ft 277 kts 322°
2026-04-28 14:15 -1.68447 116.94381 8486 ft 276 kts 322°
2026-04-28 14:15 -1.66949 116.93188 8158 ft 275 kts 323°
2026-04-28 14:15 -1.65457 116.91999 7856 ft 274 kts 322°
2026-04-28 14:15 -1.63970 116.90812 7538 ft 273 kts 323°
2026-04-28 14:16 -1.62488 116.89632 7214 ft 272 kts 323°
2026-04-28 14:16 -1.61034 116.88474 6912 ft 270 kts 322°
2026-04-28 14:16 -1.59554 116.87293 6593 ft 268 kts 323°
2026-04-28 14:16 -1.58118 116.86149 6277 ft 266 kts 322°
2026-04-28 14:17 -1.56671 116.84995 5949 ft 265 kts 322°
2026-04-28 14:17 -1.55238 116.83853 5643 ft 263 kts 322°
2026-04-28 14:17 -1.53811 116.82715 5322 ft 261 kts 322°
2026-04-28 14:17 -1.52391 116.81584 5010 ft 259 kts 322°
2026-04-28 14:18 -1.50988 116.80465 4692 ft 257 kts 322°
2026-04-28 14:18 -1.49593 116.79354 4379 ft 255 kts 322°
2026-04-28 14:18 -1.48209 116.78250 4068 ft 254 kts 322°
2026-04-28 14:18 -1.46835 116.77155 3767 ft 252 kts 322°
2026-04-28 14:19 -1.45468 116.76068 3446 ft 250 kts 323°
2026-04-28 14:19 -1.43990 116.75172 3110 ft 249 kts 335°
2026-04-28 14:19 -1.42446 116.74454 2760 ft 247 kts 337°
2026-04-28 14:19 -1.40849 116.73763 2523 ft 256 kts 339°
2026-04-28 14:20 -1.39191 116.73062 2482 ft 260 kts 338°
2026-04-28 14:20 -1.37482 116.72507 2448 ft 250 kts 352°
2026-04-28 14:20 -1.35850 116.72589 2209 ft 226 kts 18°
2026-04-28 14:20 -1.34531 116.73295 2022 ft 210 kts 41°
2026-04-28 14:21 -1.33637 116.74374 2014 ft 190 kts 59°
2026-04-28 14:21 -1.33032 116.75468 2006 ft 175 kts 62°
2026-04-28 14:21 -1.32506 116.76497 2010 ft 159 kts 63°
2026-04-28 14:21 -1.32011 116.77468 1992 ft 152 kts 63°
2026-04-28 14:22 -1.31558 116.78394 1993 ft 146 kts 65°
2026-04-28 14:22 -1.31155 116.79293 1963 ft 137 kts 66°
2026-04-28 14:22 -1.30784 116.80150 1800 ft 133 kts 66°
2026-04-28 14:22 -1.30421 116.80993 1608 ft 131 kts 66°
2026-04-28 14:23 -1.30063 116.81833 1390 ft 131 kts 67°
2026-04-28 14:23 -1.29709 116.82664 1237 ft 129 kts 66°
2026-04-28 14:23 -1.29355 116.83497 1087 ft 131 kts 66°
2026-04-28 14:23 -1.28997 116.84340 933 ft 132 kts 67°
2026-04-28 14:24 -1.28636 116.85190 762 ft 133 kts 66°
2026-04-28 14:24 -1.28274 116.86045 581 ft 134 kts 64°
2026-04-28 14:24 -1.27922 116.86891 376 ft 133 kts 65°
2026-04-28 14:24 -1.27564 116.87742 229 ft 134 kts 68°
2026-04-28 14:25 -1.27198 116.88590 44 ft 131 kts 67°
2026-04-28 14:25 -1.26882 116.89346 28 ft 90 kts 67°
2026-04-28 14:25 -1.26717 116.89734 27 ft 45 kts 66°
2026-04-28 14:25 -1.26573 116.90072 30 ft 49 kts 64°
2026-04-28 14:26 -1.26476 116.90109 26 ft 18 kts 329°
2026-04-28 14:26 -1.26363 116.90060 27 ft 21 kts 338°
2026-04-28 14:26 -1.26276 116.90097 29 ft 11 kts 30°